Location: Brachstadt
(48.6975°N, 10.6755°E)
Time: 04:25:17
(UTC+00:00)

Abrixas rocket - Pass Details

Date: 18 September 2020
Orbit: 327 x 334 km, 48.4° (Epoch: 29 October)

Event Time Altitude Azimuth Distance (km) Brightness Sun altitude
Rises 19:24:42 0° 269° (W) 2,092 6.9 -20.1°
Reaches altitude 10° 19:26:42 10° 270° (W) 1,254 5.5 -20.4°
Enters shadow 19:28:36 39° 268° (W) 511 3.1 -20.7°
